Location: Berg
(48.4333°N, 13.9167°E)
Time: 06:22:32
(UTC+00:00)

CENTAUR R/B - Pass Details

Date: 18 September 2020
Orbit: 755 x 1433 km, 63.4° (Epoch: 02 October)

Event Time Altitude Azimuth Distance (km) Brightness Sun altitude
Rises 17:33:17 0° 312° (NW) 3,963 6.7 -4.7°
Reaches altitude 10° 17:36:06 10° 321° (NW) 3,102 5.9 -5.1°
Maximum altitude 17:43:05 37° 28° (NNE) 1,906 3.9 -6.3°
Drops below altitude 10° 17:50:53 10° 93° (E) 3,476 4.7 -7.6°
Enters shadow 17:51:21 - 94° (E) 3,613 4.8 -7.6°
